Weather History for York, PA

Change the Weather History Date:

Tuesday, January 8, 2013

  Actual Average Record
Temperature  
Mean Temperature 32 °F -  
Max Temperature 46 °F 0 °F 69 °F (2008)
Min Temperature 18 °F - 7 °F (2014)
Degree Days  
Heating Degree Days 33    
Moisture  
Dew Point 22 °F    
Average Humidity 78    
Maximum Humidity 92    
Minimum Humidity 46    
Precipitation  
Precipitation 0.00 in - - ()
Sea Level Pressure  
Sea Level Pressure 30.39 in    
Wind  
Wind Speed 1 mph (WNW)    
Max Wind Speed 5 mph    
Max Gust Speed -    
Visibility 7 miles    
Events      
Averages and records for this station are not official NWS values.
T = Trace of Precipitation, MM = Missing Value Source: NWS Daily Summary

Daily Weather History Graph

Daily Weather History Graph

Search for Another Location

Airport:

Trip Planner

Search our weather history database for the weather conditions in past years. The results will help you decide how hot, cold, wet, or windy it might be!

Date:

Astronomy

Jan. 08, 2013 Rise Set
Actual Time 7:29 AM EST 4:59 PM EST
Civil Twilight 6:58 AM EST 5:29 PM EST
Nautical Twilight 6:25 AM EST 6:03 PM EST
Astronomical Twilight 5:52 AM EST 6:36 PM EST
Moon 3:59 AM EST (1/8) 2:00 PM EST (1/8)
Length of Visible Light 10h 31m
Length of Day
9h 30m
Waning Crescent, 14% of the Moon is Illuminated
Jan 8
Waning Crescent
Jan 11
New
Jan 18
First Quarter
Jan 26
Full
Feb 3
Last Quarter

Hourly Weather History & Observations

Time (EST) Temp. Windchill Dew Point Humidity Pressure Visibility Wind Dir Wind Speed Gust Speed Precip Events Conditions
12:53 AM 21.0 °F 16.2 °F 18.0 °F 88% 30.39 in 5.0 mi SE 3.5 mph - N/A   Clear
1:53 AM 21.0 °F - 18.0 °F 88% 30.38 in 5.0 mi Calm Calm - N/A   Clear
2:53 AM 21.0 °F - 17.1 °F 85% 30.38 in 5.0 mi Calm Calm - N/A   Clear
3:53 AM 19.9 °F - 17.1 °F 89% 30.37 in 4.0 mi Calm Calm - N/A   Clear
4:53 AM 19.9 °F - 17.1 °F 89% 30.38 in 4.0 mi Calm Calm - N/A   Clear
5:53 AM 19.0 °F - 17.1 °F 92% 30.38 in 4.0 mi Calm Calm - N/A   Clear
6:53 AM 18.0 °F - 15.1 °F 88% 30.40 in 4.0 mi Calm Calm - N/A   Clear
7:53 AM 19.0 °F - 16.0 °F 88% 30.41 in 3.0 mi Calm Calm - N/A   Clear
9:53 AM 30.9 °F - 26.1 °F 82% 30.41 in 4.0 mi Calm Calm - N/A   Haze
10:53 AM 36.0 °F 33.3 °F 28.9 °F 76% 30.40 in 6.0 mi North 3.5 mph - N/A   Haze
11:53 AM 39.9 °F - 30.0 °F 68% 30.39 in 8.0 mi Calm Calm - N/A   Clear
12:53 PM 44.1 °F 41.5 °F 28.9 °F 55% 30.38 in 10.0 mi West 4.6 mph - N/A   Clear
1:53 PM 45.0 °F - 28.9 °F 53% 30.37 in 10.0 mi Calm Calm - N/A   Clear
2:53 PM 46.9 °F - 27.0 °F 46% 30.38 in 10.0 mi West 4.6 mph - N/A   Clear
3:53 PM 46.0 °F 43.9 °F 28.0 °F 50% 30.39 in 10.0 mi WNW 4.6 mph - N/A   Clear
4:53 PM 36.0 °F - 27.0 °F 70% 30.39 in 10.0 mi Calm Calm - N/A   Clear
5:53 PM 30.9 °F - 26.1 °F 82% 30.40 in 10.0 mi Calm Calm - N/A   Clear
7:53 PM 26.1 °F - 23.0 °F 88% 30.40 in 8.0 mi Calm Calm - N/A   Clear
8:53 PM 24.1 °F - 21.0 °F 88% 30.40 in 6.0 mi Calm Calm - N/A   Clear
9:53 PM 24.1 °F - 21.0 °F 88% 30.42 in 6.0 mi Calm Calm - N/A   Clear
10:53 PM 23.0 °F - 19.9 °F 88% 30.40 in 6.0 mi Calm Calm - N/A   Clear